Volver al catálogo

DELTA 1 DEB

ActivoLEO
NORAD 3127·DEBRIS·🇺🇸 United States

Lanzado Jan 11, 1968 desde Vandenberg Space Force Base

Loading…

Próximos Pases (próximas 24 horas)

TLE

ActualizadoSource: Space-Track

Época: Sep 14, 2026, 05:56 UTC

1 03127U 68002D   26257.24769367 -.00000066  00000-0  19608-4 0  9996
2 03127 105.3355  78.0704 0321070 155.1572  21.5076 12.84897535750401

Sigue DELTA 1 DEB en tiempo real con AllMySat

Download on the App Store